FW2285 Weather Reports


Display with metric or nautical units.
time (UTC)temp
F
wind
direction
speed
MPH
gust
MPH
rain 1hr
in
rain 24hr
in
rain mn
in
humidity
%
barometer
mb
20260906170025 91 107 0.0 3.0 0.00 0.00 0.00 47 1015.3
20260906164524 90 104 0.0 4.0 0.00 0.00 0.00 50 1015.5
20260906163029 90 103 0.0 3.0 0.00 0.00 0.00 52 1015.5
20260906161518 88 103 1.0 4.0 0.00 0.00 0.00 54 1015.7
20260906160017 88 101 0.0 2.0 0.00 0.00 0.00 53 1015.3
20260906154513 87 103 1.0 3.0 0.00 0.00 0.00 55 1015.3
20260906153011 86 107 0.0 3.0 0.00 0.00 0.00 55 1015.1
20260906151508 85 100 0.0 4.0 0.00 0.00 0.00 56 1015.3
20260906150004 83 117 0.0 3.0 0.00 0.00 0.00 56 1015.3
20260906144613 83 117 0.0 3.0 0.00 0.00 0.00 57 1015.3
20260906143105 82 117 0.0 3.0 0.00 0.00 0.00 57 1015.5
20260906141558 81 134 1.0 5.0 0.00 0.00 0.00 58 1015.7
20260906140054 80 136 0.0 2.0 0.00 0.00 0.00 59 1015.6
20260906134556 79 140 0.0 2.0 0.00 0.00 0.00 60 1015.6
20260906133053 78 249 0.0 3.0 0.00 0.00 0.00 60 1015.4
20260906131548 77 248 0.0 2.0 0.00 0.00 0.00 60 1015.4
20260906130055 77 248 0.0 2.0 0.00 0.00 0.00 61 1015.1
20260906124542 76 254 0.0 1.0 0.00 0.00 0.00 61 1015.0
20260906123045 76 254 0.0 1.0 0.00 0.00 0.00 61 1014.7
20260906121546 75 254 0.0 0.0 0.00 0.00 0.00 60 1014.7
20260906120039 76 254 0.0 1.0 0.00 0.00 0.00 60 1014.6
20260906114538 76 254 0.0 0.0 0.00 0.00 0.00 59 1014.5
20260906113036 76 254 0.0 0.0 0.00 0.00 0.00 59 1014.3
20260906111535 76 254 0.0 0.0 0.00 0.00 0.00 60 1014.3
20260906110034 76 254 0.0 1.0 0.00 0.00 0.00 60 1014.1
20260906104534 76 254 0.0 1.0 0.00 0.00 0.00 60 1014.1
20260906103033 76 254 0.0 1.0 0.00 0.00 0.00 61 1013.9
20260906101533 76 254 0.0 0.0 0.00 0.00 0.00 61 1014.2
20260906100038 75 254 0.0 1.0 0.00 0.00 0.00 62 1013.7
20260906094530 75 254 0.0 1.0 0.00 0.00 0.00 62 1013.9
20260906093044 75 254 0.0 2.0 0.00 0.00 0.00 62 1013.8
20260906091529 75 254 0.0 1.0 0.00 0.00 0.00 63 1013.5
20260906090028 75 254 0.0 0.0 0.00 0.00 0.00 63 1013.4
20260906084527 75 254 0.0 0.0 0.00 0.00 0.00 63 1013.3
20260906083027 75 254 0.0 0.0 0.00 0.00 0.00 63 1013.4
20260906081543 76 254 0.0 0.0 0.00 0.00 0.00 63 1013.3
20260906080024 76 254 0.0 0.0 0.00 0.00 0.00 63 1013.2
20260906074523 76 254 0.0 0.0 0.00 0.00 0.00 63 1013.2
20260906073037 76 254 0.0 0.0 0.00 0.00 0.00 63 1013.2
20260906071520 76 254 0.0 0.0 0.00 0.00 0.00 62 1013.0
20260906070029 77 254 0.0 0.0 0.00 0.00 0.00 62 1013.2
20260906064518 77 254 0.0 0.0 0.00 0.00 0.00 62 1013.4
20260906063016 77 254 0.0 0.0 0.00 0.00 0.00 62 1013.7
20260906061515 77 254 0.0 0.0 0.00 0.00 0.00 61 1013.7
20260906060013 77 254 0.0 0.0 0.00 0.00 0.00 61 1013.6
20260906054520 78 254 0.0 0.0 0.00 0.00 0.00 61 1013.8
20260906053011 78 254 0.0 1.0 0.00 0.00 0.00 61 1013.9
20260906051517 78 254 0.0 0.0 0.00 0.00 0.00 61 1013.7
20260906050007 78 254 0.0 0.0 0.00 0.00 0.00 60 1013.5
20260906044506 79 254 0.0 0.0 0.00 0.00 0.00 60 1013.4
20260906043005 79 254 0.0 0.0 0.00 0.00 0.00 60 1013.4
20260906041505 79 254 0.0 0.0 0.00 0.00 0.00 59 1013.2
20260906040005 79 254 0.0 0.0 0.00 0.00 0.00 60 1013.2
20260906034504 79 254 0.0 0.0 0.00 0.00 0.00 60 1013.1
20260906033004 80 254 0.0 0.0 0.00 0.00 0.00 59 1012.9
20260906031503 81 254 0.0 0.0 0.00 0.00 0.00 57 1012.9
20260906030003 81 254 0.0 0.0 0.00 0.00 0.00 56 1012.7
20260906024503 82 254 0.0 0.0 0.00 0.00 0.00 53 1012.5
20260906023001 83 254 0.0 0.0 0.00 0.00 0.00 51 1012.5
20260906021501 83 254 0.0 0.0 0.00 0.00 0.00 49 1012.3
20260906020002 84 254 0.0 0.0 0.00 0.00 0.00 49 1012.1
20260906014626 85 254 0.0 0.0 0.00 0.00 0.00 48 1012.0
20260906013101 85 254 0.0 0.0 0.00 0.00 0.00 47 1011.9
20260906011602 86 254 0.0 0.0 0.00 0.00 0.00 46 1011.8
20260906010059 87 254 0.0 0.0 0.00 0.00 0.00 47 1011.7
20260906004612 88 254 0.0 0.0 0.00 0.00 0.00 45 1011.8
20260906003059 89 254 0.0 0.0 0.00 0.00 0.00 44 1011.7
20260906001557 90 254 0.0 0.0 0.00 0.00 0.00 42 1011.8
20260906000107 91 254 0.0 1.0 0.00 0.00 0.00 40 1011.7
20260905234601 92 254 0.0 0.0 0.00 0.00 0.00 40 1011.6
20260905233058 92 254 0.0 0.0 0.00 0.00 0.00 41 1011.5
20260905231556 93 254 0.0 0.0 0.00 0.00 0.00 37 1011.4
20260905230057 95 257 0.0 1.0 0.00 0.00 0.00 36 1011.4
20260905224605 94 257 0.0 0.0 0.00 0.00 0.00 35 1011.5
20260905223054 96 257 0.0 2.0 0.00 0.00 0.00 33 1011.3
20260905221554 97 257 0.0 3.0 0.00 0.00 0.00 34 1011.3
20260905220053 97 258 1.0 3.0 0.00 0.00 0.00 32 1011.7
20260905214549 97 257 0.0 4.0 0.00 0.00 0.00 30 1011.9
20260905213049 96 257 0.0 3.0 0.00 0.00 0.00 30 1012.0
20260905211549 97 257 0.0 2.0 0.00 0.00 0.00 31 1012.3
20260905210048 97 257 0.0 2.0 0.00 0.00 0.00 30 1012.7
20260905204545 96 255 0.0 2.0 0.00 0.00 0.00 35 1012.9
20260905203044 97 254 0.0 3.0 0.00 0.00 0.00 34 1012.9
20260905201546 96 252 1.0 4.0 0.00 0.00 0.00 35 1012.9
20260905200050 96 252 0.0 2.0 0.00 0.00 0.00 36 1013.2
20260905194540 96 252 0.0 4.0 0.00 0.00 0.00 32 1013.4
20260905193041 95 234 0.0 2.0 0.00 0.00 0.00 35 1013.4
20260905191539 95 233 1.0 4.0 0.00 0.00 0.00 36 1013.5
20260905190048 96 209 0.0 3.0 0.00 0.00 0.00 35 1013.9
20260905184551 95 207 0.0 2.0 0.00 0.00 0.00 35 1013.9
20260905183038 95 221 0.0 2.0 0.00 0.00 0.00 38 1014.0
20260905181534 95 216 0.0 2.0 0.00 0.00 0.00 42 1014.2
20260905180031 94 213 0.0 3.0 0.00 0.00 0.00 40 1014.4
20260905174529 93 210 1.0 3.0 0.00 0.00 0.00 39 1014.6
20260905173028 92 206 0.0 3.0 0.00 0.00 0.00 43 1014.8
20260905171524 92 208 0.0 2.0 0.00 0.00 0.00 44 1015.1